Weather History for Hurlburt Field, FL

Change the Weather History Date:

Thursday, January 10, 2013

  Actual Average Record
Temperature  
Mean Temperature 66 °F -  
Max Temperature 68 °F 59 °F 72 °F (2008)
Min Temperature 64 °F 40 °F 24 °F (2001)
Cooling Degree Days 1    
Growing Degree Days 16 (Base 50)    
Moisture  
Dew Point 66 °F    
Average Humidity 100    
Maximum Humidity 100    
Minimum Humidity 100    
Precipitation  
Precipitation 0.00 in - - ()
Sea Level Pressure  
Sea Level Pressure 30.21 in    
Wind  
Wind Speed 12 mph (ESE)    
Max Wind Speed 21 mph    
Max Gust Speed 31 mph    
Visibility 4 miles    
Events Fog , Rain    
Averages and records for this station are not official NWS values.
T = Trace of Precipitation, MM = Missing Value Source: NWS Daily Summary

Daily Weather History Graph

Daily Weather History Graph

Search for Another Location

Airport:

Trip Planner

Search our weather history database for the weather conditions in past years. The results will help you decide how hot, cold, wet, or windy it might be!

Date:

Astronomy

Jan. 10, 2013 Rise Set
Actual Time 6:44 AM CST 5:04 PM CST
Civil Twilight 6:18 AM CST 5:30 PM CST
Nautical Twilight 5:48 AM CST 6:00 PM CST
Astronomical Twilight 5:19 AM CST 6:29 PM CST
Moon 5:24 AM CST (1/10) 4:10 PM CST (1/10)
Length of Visible Light 11h 12m
Length of Day
10h 19m
Waning Crescent, 2% of the Moon is Illuminated
Jan 10
Waning Crescent
Jan 11
New
Jan 18
First Quarter
Jan 26
Full
Feb 3
Last Quarter

Hourly Weather History & Observations

Time (CST) Temp. Dew Point Humidity Pressure Visibility Wind Dir Wind Speed Gust Speed Precip Events Conditions
12:55 AM 66.2 °F 66.2 °F 100% 30.27 in 10.0 mi East 10.4 mph - N/A   Mostly Cloudy
1:40 AM 66.2 °F 66.2 °F 100% 30.25 in 10.0 mi East 10.4 mph - N/A   Overcast
1:55 AM 66.2 °F 66.2 °F 100% 30.25 in 10.0 mi East 10.4 mph - N/A   Mostly Cloudy
2:56 AM 64.4 °F 64.4 °F 100% 30.24 in 2.5 mi East 10.4 mph - N/A   Overcast
3:56 AM 66.2 °F 66.2 °F 100% 30.23 in 2.0 mi East 10.4 mph - N/A   Overcast
4:55 AM 66.2 °F 66.2 °F 100% 30.22 in 2.5 mi East 9.2 mph - N/A   Overcast
5:55 AM 67.3 °F 67.3 °F 100% 30.22 in 10.0 mi ESE 11.5 mph - N/A   Overcast
6:05 AM 68.0 °F 68.0 °F 100% 30.22 in 10.0 mi ESE 15.0 mph 20.7 mph N/A   Overcast
6:11 AM 68.0 °F 68.0 °F 100% 30.22 in 10.0 mi ESE 12.7 mph 20.7 mph N/A   Overcast
6:55 AM 66.7 °F 66.7 °F 100% 30.22 in 8.0 mi ESE 12.7 mph - N/A   Overcast
6:58 AM 66.2 °F 66.2 °F 100% 30.22 in 7.0 mi SE 15.0 mph 20.7 mph N/A   Overcast
7:24 AM 66.2 °F 66.2 °F 100% 30.22 in 4.0 mi ESE 11.5 mph - N/A   Overcast
7:25 AM 66.2 °F 66.2 °F 100% 30.21 in 1.5 mi ESE 12.7 mph - N/A   Overcast
7:28 AM 66.2 °F 66.2 °F 100% 30.21 in 1.0 mi ESE 16.1 mph - N/A   Overcast
7:34 AM 66.2 °F 66.2 °F 100% 30.21 in 0.6 mi ESE 13.8 mph 21.9 mph N/A   Overcast
7:52 AM 66.2 °F 66.2 °F 100% 30.23 in 0.4 mi ESE 13.8 mph - N/A Fog Fog
7:56 AM 66.2 °F 66.2 °F 100% 30.24 in 0.4 mi ESE 13.8 mph 19.6 mph N/A Fog Fog
8:59 AM 66.2 °F 66.2 °F 100% 30.26 in 0.4 mi ESE 9.2 mph - N/A Fog Fog
9:32 AM 66.2 °F 66.2 °F 100% 30.28 in 0.5 mi ESE 11.5 mph - N/A Fog Fog
9:59 AM 66.2 °F 66.2 °F 100% 30.27 in 0.5 mi SE 16.1 mph 25.3 mph N/A Fog Fog
10:59 AM 66.2 °F 66.2 °F 100% 30.26 in 0.5 mi ESE 11.5 mph - N/A Fog Fog
11:40 AM 66.2 °F 66.2 °F 100% 30.24 in 0.8 mi ESE 11.5 mph - N/A   Overcast
11:57 AM 66.2 °F 66.2 °F 100% 30.23 in 1.0 mi ESE 10.4 mph - N/A   Overcast
12:23 PM 68.0 °F 68.0 °F 100% 30.21 in 6.0 mi East 10.4 mph - N/A   Overcast
12:49 PM 66.2 °F 66.2 °F 100% 30.21 in 1.0 mi SE 12.7 mph - N/A   Overcast
12:56 PM 66.2 °F 66.2 °F 100% 30.22 in 1.0 mi SE 10.4 mph - N/A   Overcast
1:04 PM 66.2 °F 66.2 °F 100% 30.21 in 0.8 mi ESE 10.4 mph - N/A   Overcast
1:20 PM 66.2 °F 66.2 °F 100% 30.20 in 0.4 mi ESE 9.2 mph - N/A Fog Fog
1:56 PM 68.0 °F 68.0 °F 100% 30.20 in 1.5 mi ESE 10.4 mph 17.3 mph N/A   Overcast
2:13 PM 68.0 °F 68.0 °F 100% 30.18 in 3.0 mi ESE 8.1 mph - N/A   Overcast
2:55 PM 68.0 °F 68.0 °F 100% 30.20 in 2.0 mi ESE 12.7 mph - N/A   Overcast
3:42 PM 68.0 °F 68.0 °F 100% 30.19 in 1.5 mi ESE 10.4 mph - N/A   Overcast
3:57 PM 68.0 °F 68.0 °F 100% 30.20 in 1.5 mi ESE 11.5 mph - N/A   Overcast
4:51 PM 66.2 °F 66.2 °F 100% 30.19 in 0.9 mi ESE 12.7 mph - N/A   Overcast
4:59 PM 66.2 °F 66.2 °F 100% 30.20 in 1.0 mi ESE 9.2 mph - N/A   Overcast
5:27 PM 66.2 °F 66.2 °F 100% 30.18 in 0.5 mi ESE 12.7 mph - N/A   Mist
5:59 PM 66.2 °F 66.2 °F 100% 30.18 in 1.5 mi ESE 13.8 mph - N/A   Overcast
6:24 PM 66.2 °F 66.2 °F 100% 30.19 in 4.0 mi South 10.4 mph - N/A Rain Light Rain
6:46 PM 64.4 °F 64.4 °F 100% 30.19 in 2.0 mi South 19.6 mph 27.6 mph N/A Rain Rain
6:59 PM 64.4 °F 64.4 °F 100% 30.20 in 8.0 mi South 13.8 mph 20.7 mph N/A Rain Light Rain
7:31 PM 64.4 °F 64.4 °F 100% 30.20 in 10.0 mi South 12.7 mph - N/A   Scattered Clouds
7:58 PM 64.4 °F 64.4 °F 100% 30.22 in 10.0 mi South 16.1 mph - N/A Rain Light Rain
8:59 PM 64.4 °F 64.4 °F 100% 30.22 in 10.0 mi SSE 11.5 mph - N/A Rain Light Rain
9:56 PM 64.4 °F 64.4 °F 100% 30.16 in 3.0 mi East 20.7 mph 31.1 mph N/A Rain Light Rain
10:21 PM 64.4 °F 64.4 °F 100% 30.15 in 10.0 mi SE 16.1 mph 26.5 mph N/A Rain Light Rain
10:37 PM 64.4 °F 64.4 °F 100% 30.15 in 10.0 mi ESE 13.8 mph 19.6 mph N/A   Mostly Cloudy
10:55 PM 64.4 °F 64.4 °F 100% 30.16 in 10.0 mi ESE 10.4 mph 18.4 mph N/A   Mostly Cloudy
11:55 PM 64.4 °F 64.4 °F 100% 30.13 in 10.0 mi East 11.5 mph - N/A   Mostly Cloudy